Date String (YYYY-MM-DD hh:mm:ss) UTC,Instrument flags,Ambient pressure (hPa),Sample flow (lpm),Bypass flow (lpm),Sample temperature (°C),Ambient temperature (°C),ASC tube jacket temperature (°C),LED temperature (°C),Box temperature (°C),Sample RH (%),Span deviation,Mass concentration (μg/m³),Mass concentration (μg/m³),Mass concentration (μg/m³)
DateTimeUTC,F1_M11,P_M11,Q1_M11,Q2_M11,T1_M11,T2_M11,T3_M11,T4_M11,T5_M11,U1_M11,ZSPAN_M11,X0_M11,X2_M11,X1_M11
2021-12-29 08:00:00,,0810.3,5.00,0.00,22.8,23.4,00.0,31.7,24.8,05.9,0000.0,0011.40,0003.26,0001.22
2021-12-29 08:01:00,,0810.4,5.01,0.00,22.9,23.2,00.0,31.7,24.7,05.9,0000.0,0012.39,0003.29,0001.22
2021-12-29 08:02:00,,0810.4,4.99,0.00,22.8,22.9,00.0,31.7,24.6,05.9,0000.0,0012.42,0003.26,0001.22
2021-12-29 08:03:00,,0810.5,5.01,0.00,22.8,22.7,00.0,31.7,24.5,05.9,0000.0,0012.61,0003.21,0001.22
2021-12-29 08:04:00,,0810.6,4.99,0.00,22.8,22.5,00.0,31.7,24.4,05.9,0000.0,0012.58,0003.22,0001.22
2021-12-29 08:05:00,,0810.6,5.01,0.00,22.8,22.3,00.0,31.7,24.4,05.9,0000.0,0011.78,0003.19,0001.21
2021-12-29 08:06:00,,0810.6,4.98,0.00,22.7,22.1,00.0,31.7,24.3,05.9,0000.0,0011.79,0003.15,0001.18
2021-12-29 08:07:00,,0810.6,5.00,0.00,22.7,22.0,00.0,31.7,24.3,05.9,0000.0,0011.86,0003.10,0001.17
2021-12-29 08:08:00,,0810.6,5.00,0.00,22.7,21.9,00.0,31.7,24.3,05.9,0000.0,0012.42,0003.12,0001.16
2021-12-29 08:09:00,,0810.5,5.00,0.00,22.6,21.9,00.0,31.7,24.2,05.9,0000.0,0012.89,0003.10,0001.15
2021-12-29 08:10:00,,0810.6,5.01,0.00,22.6,21.8,00.0,31.6,24.2,05.9,0000.0,0012.99,0003.14,0001.16
2021-12-29 08:11:00,,0810.6,5.00,0.00,22.6,21.7,00.0,31.6,24.2,05.9,0000.0,0013.45,0003.08,0001.15
2021-12-29 08:12:00,,0810.6,5.00,0.00,22.6,21.7,00.0,31.6,24.2,06.0,0000.0,0012.64,0003.01,0001.13
2021-12-29 08:13:00,,0810.6,5.00,0.00,22.5,21.6,00.0,31.6,24.1,06.0,0000.0,0012.67,0003.08,0001.13
2021-12-29 08:14:00,,0810.6,5.00,0.00,22.5,21.9,00.0,31.6,24.2,06.0,0000.0,0013.69,0003.16,0001.13
2021-12-29 08:15:00,,0810.6,5.01,0.00,22.6,22.6,00.0,31.6,24.4,06.0,0000.0,0014.95,0003.15,0001.14
2021-12-29 08:16:00,,0810.6,5.00,0.00,22.8,23.3,00.0,31.7,24.7,05.9,0000.0,0014.76,0003.15,0001.16
2021-12-29 08:17:00,,0810.5,4.99,0.00,22.8,23.2,00.0,31.7,24.7,05.9,0000.0,0014.44,0003.17,0001.19
2021-12-29 08:18:00,,0810.5,4.99,0.00,22.8,23.0,00.0,31.7,24.6,05.9,0000.0,0014.43,0003.21,0001.20
2021-12-29 08:19:00,,0810.6,5.01,0.00,22.8,22.7,00.0,31.7,24.5,05.9,0000.0,0014.04,0003.22,0001.20
2021-12-29 08:20:00,,0810.6,5.00,0.00,22.8,22.5,00.0,31.7,24.4,05.9,0000.0,0013.52,0003.21,0001.19
2021-12-29 08:21:00,,0810.7,5.00,0.00,22.7,22.3,00.0,31.7,24.3,05.9,0000.0,0013.20,0003.22,0001.17
2021-12-29 08:22:00,,0810.7,4.98,0.00,22.7,22.1,00.0,31.7,24.2,05.9,0000.0,0012.67,0003.24,0001.18
2021-12-29 08:23:00,,0810.6,5.01,0.00,22.6,22.0,00.0,31.7,24.2,05.9,0000.0,0012.60,0003.24,0001.18
2021-12-29 08:24:00,,0810.6,5.01,0.00,22.6,21.9,00.0,31.6,24.1,05.9,0000.0,0012.92,0003.21,0001.19
2021-12-29 08:25:00,,0810.6,4.98,0.00,22.6,21.8,00.0,31.6,24.1,05.9,0000.0,0013.38,0003.22,0001.19
2021-12-29 08:26:00,,0810.5,5.00,0.00,22.5,21.7,00.0,31.6,24.1,05.9,0000.0,0012.01,0003.19,0001.18
2021-12-29 08:27:00,,0810.6,5.01,0.00,22.5,21.7,00.0,31.6,24.1,05.9,0000.0,0012.79,0003.19,0001.17
2021-12-29 08:28:00,,0810.6,4.99,0.00,22.5,21.6,00.0,31.6,24.0,05.9,0000.0,0013.07,0003.17,0001.15
2021-12-29 08:29:00,,0810.6,4.98,0.00,22.4,21.6,00.0,31.5,24.0,06.0,0000.0,0013.22,0003.23,0001.15
2021-12-29 08:30:00,,0810.7,5.01,0.00,22.4,21.5,00.0,31.5,24.0,06.0,0000.0,0012.66,0003.19,0001.15
2021-12-29 08:31:00,,0810.7,5.00,0.00,22.4,21.8,00.0,31.5,24.1,06.0,0000.0,0012.57,0003.20,0001.15
2021-12-29 08:32:00,,0810.7,5.00,0.00,22.5,22.5,00.0,31.6,24.3,05.9,0000.0,0012.49,0003.17,0001.15
2021-12-29 08:33:00,,0810.7,4.98,0.00,22.7,23.2,00.0,31.6,24.6,05.9,0000.0,0012.52,0003.15,0001.14
2021-12-29 08:34:00,,0810.8,4.99,0.00,22.8,23.2,00.0,31.6,24.7,05.9,0000.0,0012.53,0003.16,0001.14
2021-12-29 08:35:00,,0810.7,5.02,0.00,22.8,23.0,00.0,31.6,24.6,05.9,0000.0,0012.19,0003.21,0001.15
2021-12-29 08:36:00,,0810.7,5.00,0.00,22.8,22.7,00.0,31.6,24.6,05.9,0000.0,0011.65,0003.18,0001.16
2021-12-29 08:37:00,,0810.7,4.98,0.00,22.7,22.5,00.0,31.6,24.5,05.9,0000.0,0011.79,0003.15,0001.16
2021-12-29 08:38:00,,0810.6,5.00,0.00,22.7,22.4,00.0,31.6,24.4,05.9,0000.0,0011.99,0003.12,0001.16
2021-12-29 08:39:00,,0810.6,5.00,0.00,22.7,22.2,00.0,31.6,24.3,05.9,0000.0,0011.72,0003.13,0001.16
2021-12-29 08:40:00,,0810.6,5.01,0.00,22.7,22.1,00.0,31.6,24.3,05.9,0000.0,0011.50,0002.98,0001.15
2021-12-29 08:41:00,,0810.6,5.00,0.00,22.6,22.0,00.0,31.6,24.2,05.9,0000.0,0011.32,0002.93,0001.15
2021-12-29 08:42:00,,0810.6,4.99,0.00,22.6,21.9,00.0,31.6,24.2,05.9,0000.0,0011.95,0002.90,0001.17
2021-12-29 08:43:00,,0810.6,5.00,0.00,22.6,21.8,00.0,31.6,24.2,06.0,0000.0,0012.53,0002.97,0001.19
2021-12-29 08:44:00,,0810.7,5.00,0.00,22.6,21.7,00.0,31.6,24.2,06.0,0000.0,0013.14,0002.98,0001.18
2021-12-29 08:45:00,,0810.6,5.00,0.00,22.5,21.7,00.0,31.6,24.2,06.0,0000.0,0014.68,0003.05,0001.19
2021-12-29 08:46:00,,0810.6,5.01,0.00,22.5,21.6,00.0,31.6,24.1,06.0,0000.0,0015.01,0003.04,0001.18
2021-12-29 08:47:00,,0810.6,5.01,0.00,22.5,21.6,00.0,31.5,24.1,06.0,0000.0,0014.85,0003.03,0001.16
2021-12-29 08:48:00,,0810.6,5.00,0.00,22.5,21.6,00.0,31.5,24.1,06.0,0000.0,0014.34,0003.06,0001.17
2021-12-29 08:49:00,,0810.6,5.00,0.00,22.5,22.1,00.0,31.5,24.2,06.0,0000.0,0013.77,0003.16,0001.19
2021-12-29 08:50:00,,0810.7,5.00,0.00,22.6,22.8,00.0,31.6,24.4,06.0,0000.0,0014.24,0003.19,0001.21
2021-12-29 08:51:00,,0810.7,5.00,0.00,22.7,23.3,00.0,31.6,24.6,06.0,0000.0,0014.93,0003.24,0001.23
2021-12-29 08:52:00,,0810.7,5.01,0.00,22.8,23.1,00.0,31.6,24.7,06.0,0000.0,0015.16,0003.27,0001.23
2021-12-29 08:53:00,,0810.7,5.00,0.00,22.8,22.9,00.0,31.6,24.6,06.0,0000.0,0015.07,0003.27,0001.21
2021-12-29 08:54:00,,0810.7,5.00,0.00,22.8,22.7,00.0,31.6,24.5,05.9,0000.0,0014.55,0003.24,0001.20
2021-12-29 08:55:00,,0810.8,5.00,0.00,22.8,22.5,00.0,31.7,24.5,05.9,0000.0,0013.94,0003.26,0001.23
2021-12-29 08:56:00,,0810.9,5.00,0.00,22.7,22.3,00.0,31.7,24.4,05.9,0000.0,0013.17,0003.21,0001.23
2021-12-29 08:57:00,,0810.8,5.01,0.00,22.7,22.2,00.0,31.7,24.4,05.9,0000.0,0013.00,0003.20,0001.23
2021-12-29 08:58:00,,0810.7,4.98,0.00,22.7,22.1,00.0,31.6,24.3,05.9,0000.0,0013.13,0003.24,0001.23
2021-12-29 08:59:00,,0810.8,5.00,0.00,22.7,22.0,00.0,31.6,24.3,05.9,0000.0,0013.28,0003.24,0001.22
